Previsão horária em Aalten

Hoje, 30 Setembro, Quarta-feira

Tempo Temperatura Precipitação Vento Pressão Humidade
00:00 +13°C° 0 mm 2 m/s 759 mmHg 95%
01:00 +13°C° 0 mm 2 m/s 759 mmHg 95%
02:00 +13°C° 0 mm 2 m/s 758 mmHg 96%
03:00 +13°C° 0 mm 2 m/s 758 mmHg 96%
04:00 +13°C° 0 mm 2 m/s 758 mmHg 97%
05:00 +12°C° 0 mm 2 m/s 758 mmHg 97%
06:00 +12°C° 0 mm 2 m/s 758 mmHg 97%
07:00 +13°C° 0 mm 2 m/s 758 mmHg 94%
08:00 +15°C° 0 mm 2 m/s 758 mmHg 91%
09:00 +16°C° 0 mm 2 m/s 758 mmHg 88%
10:00 +16°C° 0 mm 3 m/s 758 mmHg 85%
11:00 +17°C° 0 mm 3 m/s 757 mmHg 82%
12:00 +18°C° 0 mm 3 m/s 757 mmHg 79%
13:00 +18°C° 0.1 mm 3 m/s 756 mmHg 78%
14:00 +19°C° 0.1 mm 3 m/s 756 mmHg 77%
15:00 +19°C° 0.1 mm 3 m/s 755 mmHg 76%
16:00 +18°C° 0.2 mm 3 m/s 755 mmHg 80%
17:00 +17°C° 0.2 mm 3 m/s 755 mmHg 85%
18:00 +16°C° 0.2 mm 3 m/s 755 mmHg 89%
19:00 +14°C° 0 mm 3 m/s 755 mmHg 89%
20:00 +14°C° 0 mm 3 m/s 754 mmHg 90%
21:00 +14°C° 0 mm 3 m/s 754 mmHg 90%
22:00 +13°C° 0 mm 3 m/s 754 mmHg 91%
23:00 +13°C° 0 mm 3 m/s 753 mmHg 91%

Amanhã, 1 Outubro, Quinta-feira

Tempo Temperatura Precipitação Vento Pressão Humidade
00:00 +13°C° 0 mm 3 m/s 753 mmHg 92%
01:00 +13°C° 0 mm 4 m/s 752 mmHg 90%
02:00 +13°C° 0 mm 4 m/s 751 mmHg 89%
03:00 +13°C° 0 mm 4 m/s 750 mmHg 88%
04:00 +13°C° 0 mm 4 m/s 750 mmHg 88%
05:00 +13°C° 0 mm 4 m/s 750 mmHg 87%
06:00 +13°C° 0 mm 4 m/s 750 mmHg 87%
07:00 +14°C° 0 mm 4 m/s 749 mmHg 84%
08:00 +15°C° 0 mm 5 m/s 749 mmHg 81%
09:00 +15°C° 0 mm 5 m/s 748 mmHg 79%
10:00 +15°C° 0.1 mm 5 m/s 748 mmHg 79%
11:00 +15°C° 0.1 mm 5 m/s 747 mmHg 79%
12:00 +15°C° 0.1 mm 5 m/s 747 mmHg 79%
13:00 +15°C° 0.5 mm 6 m/s 747 mmHg 82%
14:00 +14°C° 0.5 mm 6 m/s 747 mmHg 84%
15:00 +14°C° 0.5 mm 6 m/s 746 mmHg 87%
16:00 +13°C° 0.1 mm 5 m/s 747 mmHg 88%
17:00 +12°C° 0.1 mm 4 m/s 747 mmHg 89%
18:00 +11°C° 0.1 mm 3 m/s 747 mmHg 90%
19:00 +11°C° 0 mm 3 m/s 748 mmHg 90%
20:00 +10°C° 0 mm 4 m/s 748 mmHg 89%
21:00 +10°C° 0 mm 4 m/s 748 mmHg 89%
22:00 +10°C° 0 mm 3 m/s 748 mmHg 89%
23:00 +9°C° 0 mm 3 m/s 748 mmHg 89%

Depois de amanhã, 2 Outubro, Sexta-feira

Tempo Temperatura Precipitação Vento Pressão Humidade
00:00 +9°C° 0 mm 3 m/s 748 mmHg 89%
01:00 +9°C° 0 mm 2 m/s 748 mmHg 87%
02:00 +10°C° 0 mm 2 m/s 748 mmHg 85%
03:00 +10°C° 0 mm 2 m/s 748 mmHg 84%
04:00 +10°C° 0 mm 3 m/s 747 mmHg 84%
05:00 +10°C° 0 mm 3 m/s 747 mmHg 83%
06:00 +10°C° 0 mm 4 m/s 747 mmHg 83%
07:00 +11°C° 0 mm 4 m/s 746 mmHg 79%
08:00 +13°C° 0 mm 5 m/s 746 mmHg 74%
09:00 +14°C° 0 mm 5 m/s 746 mmHg 69%
10:00 +15°C° 0 mm 6 m/s 746 mmHg 66%
11:00 +17°C° 0 mm 6 m/s 745 mmHg 62%
12:00 +18°C° 0 mm 7 m/s 745 mmHg 59%
13:00 +17°C° 0 mm 6 m/s 745 mmHg 61%
14:00 +17°C° 0 mm 6 m/s 744 mmHg 64%
15:00 +17°C° 0 mm 5 m/s 744 mmHg 66%
16:00 +17°C° 0 mm 6 m/s 744 mmHg 67%
17:00 +16°C° 0 mm 6 m/s 744 mmHg 68%
18:00 +16°C° 0 mm 6 m/s 744 mmHg 68%
19:00 +16°C° 0 mm 6 m/s 744 mmHg 69%
20:00 +16°C° 0 mm 6 m/s 744 mmHg 71%
21:00 +16°C° 0 mm 6 m/s 744 mmHg 72%
22:00 +16°C° 0 mm 6 m/s 744 mmHg 72%
23:00 +15°C° 0 mm 6 m/s 743 mmHg 73%

3 Outubro, Sábado

Tempo Temperatura Precipitação Vento Pressão Humidade
00:00 +15°C° 0 mm 6 m/s 743 mmHg 74%
01:00 +15°C° 0 mm 6 m/s 742 mmHg 77%
02:00 +14°C° 0 mm 6 m/s 742 mmHg 79%
03:00 +14°C° 0 mm 6 m/s 741 mmHg 82%
04:00 +13°C° 0 mm 6 m/s 741 mmHg 82%
05:00 +12°C° 0 mm 7 m/s 740 mmHg 83%
06:00 +12°C° 0 mm 7 m/s 740 mmHg 83%
07:00 +14°C° 0 mm 6 m/s 740 mmHg 80%
08:00 +15°C° 0 mm 6 m/s 740 mmHg 77%
09:00 +16°C° 0 mm 6 m/s 740 mmHg 75%
10:00 +17°C° 0 mm 5 m/s 740 mmHg 72%
11:00 +19°C° 0 mm 5 m/s 740 mmHg 69%
12:00 +20°C° 0 mm 4 m/s 740 mmHg 66%
13:00 +19°C° 0 mm 4 m/s 740 mmHg 68%
14:00 +18°C° 0 mm 4 m/s 741 mmHg 70%
15:00 +16°C° 0 mm 5 m/s 741 mmHg 72%
16:00 +15°C° 0.2 mm 4 m/s 741 mmHg 74%
17:00 +14°C° 0.2 mm 4 m/s 741 mmHg 76%
18:00 +13°C° 0.2 mm 4 m/s 742 mmHg 79%
19:00 +12°C° 0.1 mm 3 m/s 741 mmHg 79%
20:00 +13°C° 0.1 mm 2 m/s 741 mmHg 79%
21:00 +12°C° 0.1 mm 1 m/s 741 mmHg 79%
22:00 +12°C° 0 mm 2 m/s 741 mmHg 78%
23:00 +12°C° 0 mm 2 m/s 741 mmHg 77%

4 Outubro, Domingo

Tempo Temperatura Precipitação Vento Pressão Humidade
00:00 +11°C° 0 mm 3 m/s 740 mmHg 77%
01:00 +11°C° 0 mm 3 m/s 740 mmHg 75%
02:00 +11°C° 0 mm 3 m/s 740 mmHg 74%
03:00 +12°C° 0 mm 2 m/s 740 mmHg 73%
04:00 +11°C° 0 mm 4 m/s 740 mmHg 73%
05:00 +9°C° 0 mm 5 m/s 740 mmHg 73%
06:00 +9°C° 0 mm 6 m/s 740 mmHg 72%
07:00 +10°C° 0.1 mm 7 m/s 740 mmHg 74%
08:00 +10°C° 0.1 mm 7 m/s 739 mmHg 75%
09:00 +11°C° 0.1 mm 8 m/s 739 mmHg 76%
10:00 +11°C° 0 mm 8 m/s 740 mmHg 74%
11:00 +11°C° 0 mm 8 m/s 740 mmHg 71%
12:00 +12°C° 0 mm 8 m/s 741 mmHg 69%
13:00 +12°C° 0 mm 7 m/s 741 mmHg 67%
14:00 +12°C° 0 mm 7 m/s 742 mmHg 65%
15:00 +12°C° 0 mm 7 m/s 742 mmHg 64%
16:00 +13°C° 0 mm 6 m/s 743 mmHg 63%
17:00 +12°C° 0 mm 5 m/s 744 mmHg 63%
18:00 +12°C° 0 mm 4 m/s 744 mmHg 63%
19:00 +12°C° 0 mm 4 m/s 745 mmHg 67%
20:00 +11°C° 0 mm 4 m/s 745 mmHg 71%
21:00 +11°C° 0 mm 4 m/s 746 mmHg 76%
22:00 +11°C° 0.1 mm 4 m/s 746 mmHg 79%
23:00 +11°C° 0.1 mm 4 m/s 746 mmHg 82%

5 Outubro, Segunda-feira

Tempo Temperatura Precipitação Vento Pressão Humidade
00:00 +10°C° 0.1 mm 4 m/s 747 mmHg 85%
01:00 +10°C° 0 mm 3 m/s 747 mmHg 86%
02:00 +9°C° 0 mm 3 m/s 747 mmHg 86%
03:00 +9°C° 0 mm 3 m/s 747 mmHg 87%
04:00 +9°C° 0 mm 3 m/s 747 mmHg 88%
05:00 +9°C° 0 mm 3 m/s 747 mmHg 88%
06:00 +9°C° 0 mm 3 m/s 747 mmHg 89%
07:00 +10°C° 0 mm 3 m/s 747 mmHg 85%
08:00 +11°C° 0 mm 3 m/s 747 mmHg 81%
09:00 +12°C° 0 mm 3 m/s 747 mmHg 78%
10:00 +13°C° 0 mm 3 m/s 747 mmHg 73%
11:00 +14°C° 0 mm 3 m/s 747 mmHg 68%
12:00 +15°C° 0 mm 2 m/s 747 mmHg 64%
13:00 +14°C° 0 mm 3 m/s 747 mmHg 67%
14:00 +14°C° 0 mm 3 m/s 746 mmHg 70%
15:00 +13°C° 0 mm 3 m/s 746 mmHg 74%
16:00 +13°C° 0.1 mm 2 m/s 746 mmHg 79%
17:00 +12°C° 0.1 mm 2 m/s 746 mmHg 84%
18:00 +10°C° 0.1 mm 2 m/s 746 mmHg 88%
19:00 +11°C° 0 mm 1 m/s 746 mmHg 87%
20:00 +11°C° 0 mm 1 m/s 746 mmHg 86%
21:00 +10°C° 0 mm 1 m/s 746 mmHg 84%
22:00 +10°C° 0 mm 1 m/s 746 mmHg 85%
23:00 +10°C° 0 mm 1 m/s 746 mmHg 85%
Mostrar mais